sat.trackr.live / text

‹ back to catalog

STARLINK-36560

NORAD 67585 · 2026-016AA

PAYLOAD ACTIVE UNKNOWN

§ Identity

Operator
Country
US
Launch date
2026-01-25
Launch site
AFWTR
Launch vehicle
Mass (kg)
RCS (m²)

Purposes: comms

External: N2YO · Heavens-Above · Gunter

§ Orbital elements

Epoch: 2026-05-25T02:39:46.683072Z

Period
93.91 min
Inclination
97.2849°
Eccentricity
0.0000363
Mean motion
15.33452376 rev/d
Perigee alt
465.3 km
Apogee alt
465.8 km
Semi-major
6,843.7 km
B*
3.7246e-4
RAAN
205.4095°
Arg perigee
106.1893°
Mean anomaly
253.9390°
Rev number
1,857

§ Raw data

STARLINK-365601 67585U 26016AA  26145.11095698  .00011971  00000+0  37246-3 0  99962 67585  97.2849 205.4095 0000363 106.1893 253.9390 15.33452376 18578

JSON: /api/v1/satellites/67585 · /tle

For live sub-satellite position, see the globe view (requires WebGL).

§ Visibility from observer

Set your observer location to see the next 7 days of passes ≥ 10°. The values pass through the URL so the page stays shareable.

No JS? Fill the form by hand. The geolocation button needs JavaScript.